User: anonymous   Login
Location: Vancouver
(49.2500°N, 123.1330°W)
Time: 05:14:32
(UTC-07:00)
Language:

Vanguard 2 Rocket - Orbit

View from above orbital plane
View from above orbital plane
View from above satellite
View from above satellite

Ground track
Ground track

The orbit data is extracted from the following two-line orbital elements,

1    12U 59001B   17116.18487104 +.00000178 +00000-0 +96574-4 0  9998
2    12 032.9010 047.9516 1667343 159.6944 207.8767 11.44150462391008
Epoch (UTC): 26 April 2017 04:26:12
Eccentricity: 0.1667343
inclination: 32.9010°
perigee height: 554 km
apogee height: 3328 km
right ascension of ascending node: 47.9516°
argument of perigee: 159.6944°
revolutions per day: 11.44150462
mean anomaly at epoch: 207.8767°
orbit number at epoch: 39100

The dashed part of the orbit path shows where the satellite is in the earth's shadow,  

DLR